Flag for Slovakia

Past Weather in Bratislava, Slovakia — Yesterday and Last 2 Weeks

Now
54 °F

Clear.


Feels Like: 54 °F
Forecast: 79 / 58 °F
Wind: 2 mph from North

Location: Bratislava Ivanka

Current Time: Jul 8, 2020 at 3:09:24 am

Latest Report: Jul 8, 2020 at 2:00 am


Visibility: 10 mi

Pressure: 30.09 "Hg

Humidity: 77%

Dew Point: 46 °F

Location of BratislavaLocation

Past Weather in Bratislava — Graph

°F

Bratislava Temperature Yesterday

Maximum temperature yesterday: 70 °F (at 1:30 pm)
Minimum temperature yesterday: 57 °F (at 11:30 pm)
Average temperature yesterday: 64 °F

High & Low Weather Summary for the Past Weeks

 TemperatureHumidityPressure
High90 °F (Jun 28, 5:30 pm)100% (Jun 26, 5:30 am)30.18 "Hg (Jun 26, 5:30 am)
Low54 °F (Jul 8, 1:00 am)32% (Jul 4, 4:00 pm)29.77 "Hg (Jul 6, 4:00 pm)
Average72 °F63%29.98 "Hg
* Reported Jun 23 2:00 am — Jul 8 2:00 am, Bratislava. Weather by CustomWeather, © 2020

Note: Actual official high and low records may vary slightly from our data, if they occured in-between our weather recording intervals... More about our weather records

Bratislava Weather History for the Previous 24 Hours

Scroll right to see more
 ConditionsComfort  
Time TempWeatherWind HumidityBarometerVisibility
2:00 am
Wed, Jul 8
54 °FClear.2 mph77%30.09 "Hg10 mi
1:30 am54 °FClear.3 mph77%30.07 "Hg10 mi
1:00 am54 °FClear.5 mph77%30.09 "Hg10 mi
12:30 am55 °FClear.2 mph77%30.09 "Hg10 mi
12:00 am57 °FClear.2 mph72%30.09 "Hg10 mi
11:30 pm
Tue, Jul 7
57 °FClear.5 mph67%30.09 "Hg10 mi
11:00 pm59 °FClear.2 mph63%30.09 "Hg10 mi
10:30 pm59 °FClear.5 mph68%30.09 "Hg10 mi
10:00 pm59 °FClear.5 mph68%30.07 "Hg10 mi
9:30 pm63 °FClear.3 mph56%30.07 "Hg10 mi
9:00 pm63 °FClear.5 mph56%30.07 "Hg10 mi
8:30 pm66 °FSunny.6 mph46%30.07 "Hg10 mi
8:00 pm68 °FSunny.6 mph43%30.07 "Hg10 mi
7:30 pm68 °FSunny.9 mph40%30.07 "Hg10 mi
7:00 pm70 °FPassing clouds.13 mph35%30.07 "HgN/A
6:30 pm70 °FPassing clouds.10 mph35%30.07 "HgN/A
6:00 pm70 °FPassing clouds.12 mph40%30.07 "HgN/A
5:30 pm70 °FPassing clouds.13 mph38%30.07 "HgN/A
5:00 pm70 °FPassing clouds.15 mph40%30.07 "HgN/A
4:30 pm70 °FPassing clouds.12 mph38%30.07 "HgN/A
4:00 pm70 °FPassing clouds.13 mph38%30.07 "HgN/A
3:30 pm68 °FSunny.14 mph40%30.07 "Hg10 mi
3:00 pm68 °FSunny.15 mph43%30.07 "Hg10 mi
2:30 pm68 °FPassing clouds.16 mph38%30.07 "HgN/A
2:00 pm68 °FPassing clouds.12 mph40%30.09 "HgN/A
1:30 pm70 °FPassing clouds.14 mph40%30.09 "HgN/A
1:00 pm68 °FPassing clouds.17 mph43%30.09 "HgN/A
12:30 pm68 °FSunny.18 mph43%30.09 "Hg10 mi
12:00 pm68 °FSunny.16 mph43%30.09 "Hg10 mi
11:30 am66 °FScattered clouds.17 mph46%30.09 "HgN/A
11:00 am64 °FScattered clouds.16 mph46%30.09 "HgN/A
10:30 am66 °FScattered clouds.15 mph49%30.09 "HgN/A
10:00 am66 °FPassing clouds.15 mph49%30.09 "HgN/A
9:30 am64 °FPassing clouds.14 mph56%30.09 "HgN/A
9:00 am63 °FPassing clouds.15 mph56%30.09 "HgN/A
8:30 am63 °FPassing clouds.13 mph56%30.09 "HgN/A
8:00 am61 °FPassing clouds.8 mph59%30.07 "HgN/A
7:30 am61 °FSunny.12 mph59%30.07 "Hg10 mi
7:00 am59 °FSunny.13 mph63%30.07 "Hg10 mi
6:30 am59 °FPassing clouds.10 mph59%30.04 "HgN/A
6:00 am59 °FSunny.13 mph63%30.04 "Hg10 mi
5:30 am59 °FSunny.13 mph63%30.01 "Hg10 mi
5:00 am61 °FSunny.12 mph59%30.01 "Hg10 mi
4:30 am61 °FClear.14 mph63%29.98 "Hg10 mi
4:00 am61 °FClear.12 mph63%29.98 "Hg10 mi
3:30 am63 °FClear.15 mph64%29.98 "Hg10 mi
3:00 am61 °FClear.12 mph77%29.98 "Hg10 mi
Weather by CustomWeather, © 2020

See weather overview